N5RPG Weather Reports


Display with metric or nautical units.
time (UTC)temp
F
wind
direction
speed
MPH
gust
MPH
rain 1hr
in
rain 24hr
in
rain mn
in
humidity
%
barometer
mb
20260505064333 68 180 0.0 3.0 0.00 0.00 0.00 80 1009.6
20260505063832 68 289 1.0 4.0 0.00 0.00 0.00 80 1009.4
20260505063327 68 131 3.0 5.0 0.00 0.00 0.00 80 1009.4
20260505062824 68 207 2.0 4.0 0.00 0.00 0.00 79 1009.6
20260505062321 68 121 6.0 7.0 0.00 0.00 0.00 79 1009.7
20260505061818 68 151 1.0 5.0 0.00 0.00 0.00 79 1009.6
20260505061316 68 199 3.0 3.0 0.00 0.00 0.00 79 1009.6
20260505060813 68 118 1.0 5.0 0.00 0.00 0.00 79 1009.6
20260505060310 68 158 2.0 6.0 0.00 0.00 0.00 78 1009.8
20260505055806 69 5 0.0 5.0 0.00 0.00 0.00 78 1009.8
20260505055303 69 163 1.0 4.0 0.00 0.00 0.00 78 1009.6
20260505054800 69 231 1.0 5.0 0.00 0.00 0.00 77 1009.8
20260505054257 69 158 0.0 2.0 0.00 0.00 0.00 77 1010.0
20260505053755 69 120 2.0 3.0 0.00 0.00 0.00 77 1010.0
20260505053251 69 135 4.0 5.0 0.00 0.00 0.00 77 1009.8
20260505052749 69 127 3.0 5.0 0.00 0.00 0.00 77 1009.9
20260505052246 69 147 0.0 4.0 0.00 0.00 0.00 76 1009.9
20260505051742 69 211 2.0 4.0 0.00 0.00 0.00 76 1009.7
20260505051240 69 168 2.0 5.0 0.00 0.00 0.00 76 1009.8
20260505050738 69 150 2.0 5.0 0.00 0.00 0.00 76 1009.7
20260505050236 69 123 2.0 4.0 0.00 0.00 0.00 76 1009.8
20260505041706 69 219 0.0 5.0 0.00 0.00 0.00 74 1010.1
20260505041203 69 269 1.0 4.0 0.00 0.00 0.00 74 1010.0
20260505040700 69 129 3.0 3.0 0.00 0.00 0.00 74 1010.1
20260505040157 69 134 2.0 7.0 0.00 0.00 0.00 73 1010.0
20260505035654 69 216 1.0 4.0 0.00 0.00 0.00 73 1010.0
20260505035150 69 155 2.0 2.0 0.00 0.00 0.00 73 1009.8
20260505034647 69 106 2.0 9.0 0.00 0.00 0.00 73 1010.1
20260505034144 69 55 2.0 3.0 0.00 0.00 0.00 73 1010.1
20260505033640 69 118 0.0 6.0 0.00 0.00 0.00 72 1010.0
20260505033139 69 224 0.0 2.0 0.00 0.00 0.00 72 1010.1
20260505032637 69 171 2.0 4.0 0.00 0.00 0.00 72 1010.2
20260505032132 69 311 0.0 4.0 0.00 0.00 0.00 72 1010.3
20260505031630 69 158 1.0 4.0 0.00 0.00 0.00 71 1010.1
20260505031126 70 280 1.0 3.0 0.00 0.00 0.00 71 1009.9
20260505030623 70 155 3.0 5.0 0.00 0.00 0.00 70 1010.1
20260505030119 70 104 2.0 3.0 0.00 0.00 0.00 70 1010.0
20260505025615 70 178 0.0 2.0 0.00 0.00 0.00 69 1009.9
20260505025114 70 109 2.0 2.0 0.00 0.00 0.00 69 1009.9
20260505024611 71 184 0.0 3.0 0.00 0.00 0.00 69 1010.0
20260505024108 71 109 2.0 3.0 0.00 0.00 0.00 68 1009.9
20260505023605 71 184 0.0 9.0 0.00 0.00 0.00 68 1010.0
20260505023103 71 148 3.0 4.0 0.00 0.00 0.00 67 1009.6
20260505022600 71 46 1.0 2.0 0.00 0.00 0.00 67 1009.8
20260505022057 71 109 0.0 3.0 0.00 0.00 0.00 67 1009.8
20260505021553 71 180 2.0 4.0 0.00 0.00 0.00 66 1009.7
20260505021050 71 143 2.0 3.0 0.00 0.00 0.00 66 1009.6
20260505020550 72 111 3.0 4.0 0.00 0.00 0.00 65 1009.6
20260505020047 72 142 2.0 3.0 0.00 0.00 0.00 65 1009.7
20260505015544 72 206 2.0 5.0 0.00 0.00 0.00 64 1009.5
20260505015041 72 210 0.0 2.0 0.00 0.00 0.00 64 1009.4
20260505014538 72 200 1.0 2.0 0.00 0.00 0.00 64 1009.3
20260505014035 72 1 3.0 3.0 0.00 0.00 0.00 63 1009.4
20260505013532 72 93 1.0 2.0 0.00 0.00 0.00 63 1009.3
20260505013030 72 211 2.0 7.0 0.00 0.00 0.00 63 1009.3
20260505012527 72 207 2.0 5.0 0.00 0.00 0.00 63 1009.4
20260505012024 73 154 2.0 3.0 0.00 0.00 0.00 62 1009.3
20260505011519 73 177 2.0 4.0 0.00 0.00 0.00 61 1009.3
20260505011017 73 128 2.0 3.0 0.00 0.00 0.00 60 1009.4
20260505010512 73 177 0.0 2.0 0.00 0.00 0.00 60 1009.3
20260505010009 74 107 2.0 2.0 0.00 0.00 0.00 59 1009.1
20260505005506 74 120 0.0 2.0 0.00 0.00 0.00 58 1009.3
20260505005004 74 117 0.0 1.0 0.00 0.00 0.00 57 1009.1
20260505004500 75 164 0.0 2.0 0.00 0.00 0.00 56 1009.3
20260505003956 75 135 1.0 1.0 0.00 0.00 0.00 55 1009.2
20260505003454 75 282 0.0 2.0 0.00 0.00 0.00 53 1009.3
20260505002950 76 160 0.0 2.0 0.00 0.00 0.00 53 1009.3
20260505002446 76 112 4.0 4.0 0.00 0.00 0.00 52 1009.5
20260505001945 76 191 0.0 1.0 0.00 0.00 0.00 52 1009.6
20260505001442 77 196 3.0 3.0 0.00 0.00 0.00 51 1009.6
20260505000939 77 124 0.0 5.0 0.00 0.00 0.00 49 1009.9
20260505000437 77 190 0.0 4.0 0.00 0.00 0.00 49 1009.5
20260504235933 78 46 2.0 5.0 0.00 0.00 0.00 48 1009.9
20260504235431 78 317 2.0 4.0 0.00 0.00 0.00 47 1010.0
20260504234927 79 182 3.0 7.0 0.00 0.00 0.00 46 1009.9
20260504234424 79 198 1.0 3.0 0.00 0.00 0.00 47 1009.9
20260504233921 79 173 2.0 5.0 0.00 0.00 0.00 47 1009.9
20260504233417 80 141 0.0 6.0 0.00 0.00 0.00 45 1010.1
20260504232914 80 178 2.0 4.0 0.00 0.00 0.00 44 1010.3
20260504232410 80 221 2.0 5.0 0.00 0.00 0.00 43 1010.3
20260504231908 81 165 1.0 5.0 0.00 0.00 0.00 44 1010.4
20260504231404 81 162 4.0 6.0 0.00 0.00 0.00 43 1010.4
20260504230900 81 277 3.0 9.0 0.00 0.00 0.00 44 1010.5
20260504230358 81 183 3.0 4.0 0.00 0.00 0.00 44 1010.5
20260504225856 82 172 3.0 9.0 0.00 0.00 0.00 43 1010.4
20260504225352 82 121 5.0 6.0 0.00 0.00 0.00 43 1010.3
20260504224850 81 141 4.0 5.0 0.00 0.00 0.00 43 1010.4
20260504224347 81 203 2.0 7.0 0.00 0.00 0.00 43 1010.7
20260504223843 82 182 3.0 9.0 0.00 0.00 0.00 42 1010.7
20260504223339 81 201 2.0 9.0 0.00 0.00 0.00 44 1010.6
20260504222836 82 151 1.0 9.0 0.00 0.00 0.00 43 1010.8
20260504222332 82 267 3.0 8.0 0.00 0.00 0.00 44 1010.8
20260504221831 82 195 3.0 7.0 0.00 0.00 0.00 43 1011.0
20260504221327 82 213 2.0 7.0 0.00 0.00 0.00 43 1011.0
20260504220825 82 207 2.0 10.0 0.00 0.00 0.00 41 1011.3
20260504220321 83 119 4.0 6.0 0.00 0.00 0.00 42 1011.2
20260504215819 82 133 3.0 4.0 0.00 0.00 0.00 43 1011.1
20260504215315 82 222 2.0 4.0 0.00 0.00 0.00 44 1011.0
20260504214811 82 219 5.0 7.0 0.00 0.00 0.00 42 1011.1
20260504214308 81 119 4.0 5.0 0.00 0.00 0.00 43 1011.3
20260504213804 81 108 2.0 8.0 0.00 0.00 0.00 44 1011.4
20260504213300 82 138 2.0 7.0 0.00 0.00 0.00 42 1011.4
20260504212758 82 352 2.0 3.0 0.00 0.00 0.00 44 1011.4
20260504212254 82 214 2.0 4.0 0.00 0.00 0.00 45 1011.7
20260504211752 81 172 2.0 6.0 0.00 0.00 0.00 43 1011.7
20260504211247 82 154 3.0 4.0 0.00 0.00 0.00 44 1012.0
20260504210745 82 268 4.0 8.0 0.00 0.00 0.00 43 1012.1
20260504210242 81 173 1.0 4.0 0.00 0.00 0.00 45 1012.2
20260504205739 81 128 4.0 7.0 0.00 0.00 0.00 44 1012.3
20260504205237 82 115 6.0 7.0 0.00 0.00 0.00 43 1012.4
20260504204735 81 245 0.0 9.0 0.00 0.00 0.00 46 1012.4
20260504204233 81 185 2.0 7.0 0.00 0.00 0.00 43 1012.3
20260504203732 81 159 6.0 10.0 0.00 0.00 0.00 45 1012.6
20260504203229 81 169 2.0 9.0 0.00 0.00 0.00 44 1012.7
20260504202729 82 212 4.0 7.0 0.00 0.00 0.00 42 1012.7
20260504202226 81 127 2.0 3.0 0.00 0.00 0.00 45 1012.9
20260504201724 80 206 3.0 5.0 0.00 0.00 0.00 44 1013.0
20260504201221 81 232 2.0 10.0 0.00 0.00 0.00 43 1013.0
20260504200718 81 108 2.0 6.0 0.00 0.00 0.00 43 1013.1
20260504200214 81 309 1.0 4.0 0.00 0.00 0.00 45 1013.1
20260504195711 80 214 4.0 8.0 0.00 0.00 0.00 44 1013.3
20260504195207 80 241 2.0 6.0 0.00 0.00 0.00 44 1013.5
20260504194704 80 262 5.0 7.0 0.00 0.00 0.00 44 1013.6
20260504194200 80 124 5.0 12.0 0.00 0.00 0.00 42 1013.8
20260504193656 80 236 5.0 5.0 0.00 0.00 0.00 45 1013.5
20260504193154 81 233 2.0 5.0 0.00 0.00 0.00 42 1013.9
20260504192652 79 188 2.0 7.0 0.00 0.00 0.00 46 1013.8
20260504192150 80 146 6.0 15.0 0.00 0.00 0.00 44 1014.0
20260504191648 80 156 4.0 6.0 0.00 0.00 0.00 43 1014.0
20260504191144 80 273 4.0 8.0 0.00 0.00 0.00 43 1014.1
20260504190640 79 281 4.0 6.0 0.00 0.00 0.00 44 1014.2
20260504190137 79 114 3.0 10.0 0.00 0.00 0.00 46 1014.1
20260504185633 80 242 2.0 8.0 0.00 0.00 0.00 45 1014.4
20260504185130 80 218 1.0 6.0 0.00 0.00 0.00 45 1014.2
20260504184626 80 223 5.0 6.0 0.00 0.00 0.00 43 1014.5
20260504184121 80 147 4.0 9.0 0.00 0.00 0.00 44 1014.6
20260504183619 79 243 4.0 8.0 0.00 0.00 0.00 45 1014.5
20260504183116 79 159 3.0 13.0 0.00 0.00 0.00 45 1014.9
20260504182614 79 135 3.0 5.0 0.00 0.00 0.00 47 1014.6
20260504182111 79 126 4.0 8.0 0.00 0.00 0.00 47 1014.8
20260504181608 78 165 0.0 7.0 0.00 0.00 0.00 48 1014.9
20260504181106 79 199 3.0 7.0 0.00 0.00 0.00 46 1015.1
20260504180604 78 262 4.0 9.0 0.00 0.00 0.00 45 1015.1
20260504180103 78 138 4.0 8.0 0.00 0.00 0.00 47 1015.3
20260504175600 77 249 3.0 4.0 0.00 0.00 0.00 48 1015.5
20260504175056 77 199 4.0 12.0 0.00 0.00 0.00 45 1015.4
20260504174555 77 217 1.0 7.0 0.00 0.00 0.00 45 1015.4
20260504174051 77 246 5.0 14.0 0.00 0.00 0.00 45 1015.8
20260504173548 77 191 4.0 10.0 0.00 0.00 0.00 46 1015.6
20260504173045 78 122 6.0 10.0 0.00 0.00 0.00 45 1015.7
20260504172541 78 222 2.0 5.0 0.00 0.00 0.00 48 1015.6
20260504172038 77 281 2.0 6.0 0.00 0.00 0.00 47 1015.6
20260504171535 77 211 4.0 8.0 0.00 0.00 0.00 46 1015.6
20260504171032 77 148 4.0 4.0 0.00 0.00 0.00 48 1015.6
20260504170528 76 120 4.0 10.0 0.00 0.00 0.00 47 1015.6
20260504150912 71 212 1.0 6.0 0.00 0.00 0.00 60 1016.6
20260504150409 70 129 3.0 7.0 0.00 0.00 0.00 60 1016.5
20260504140835 66 190 2.0 4.0 0.00 0.00 0.00 69 1016.9
20260504140330 66 238 1.0 10.0 0.00 0.00 0.00 69 1016.9
20260504130800 60 116 3.0 5.0 0.00 0.00 0.00 79 1016.7
20260504130256 60 179 0.0 4.0 0.00 0.00 0.00 80 1016.8
20260504120219 55 116 2.0 3.0 0.00 0.00 0.00 91 1016.3
20260504110647 53 137 1.0 2.0 0.00 0.00 0.00 92 1015.9
20260504110143 53 112 3.0 4.0 0.00 0.00 0.00 92 1016.3
20260504100609 54 87 2.0 2.0 0.00 0.00 0.00 91 1016.6
20260504100107 54 129 0.0 2.0 0.00 0.00 0.00 91 1016.8
20260504082003 57 129 0.0 1.0 0.00 0.00 0.00 84 1016.5
20260504081500 57 124 0.0 2.0 0.00 0.00 0.00 84 1016.5
20260504080955 57 123 0.0 1.0 0.00 0.00 0.00 83 1016.4
20260504080452 58 135 0.0 1.0 0.00 0.00 0.00 83 1016.5